This is the latest recevied weather packets stored in our database for station/object HS5AU-13. If no packets are shown the sender has not sent any weather packets the latest 10 day(s).
| Time | Temp. | Humidity | Pressure | Rain* | Wind** | Luminosity | Snow |
|---|---|---|---|---|---|---|---|
| 1788158102 | 77° F | 99% | 750.6 mmHg | 0 in | - | 161 W/m² | - |
| 1788157502 | 77° F | 99% | 750.4 mmHg | 0 in | - | 212 W/m² | - |
| 1788156902 | 78° F | 98% | 750.4 mmHg | 0 in | - | 122 W/m² | - |
| 1788156302 | 78° F | 99% | 750.5 mmHg | 0 in | - | 274 W/m² | - |
| 1788155702 | 78° F | 99% | 750.6 mmHg | 0 in | - | 273 W/m² | - |
| 1788155102 | 77° F | 98% | 750.6 mmHg | 0 in | - | 211 W/m² | - |
| 1788154502 | 77° F | 97% | 750.7 mmHg | 0 in | - | 208 W/m² | - |
| 1788153902 | 78° F | 95% | 750.9 mmHg | 0 in | - | 324 W/m² | - |
| 1788153302 | 78° F | 99% | 750.6 mmHg | 0 in | - | 516 W/m² | - |
| 1788152702 | 77° F | 99% | 751.8 mmHg | 0 in | - | 425 W/m² | - |
| 1788152102 | 76° F | 99% | 751.9 mmHg | 0 in | - | 299 W/m² | - |
| 1788151502 | 76° F | 99% | 752.2 mmHg | 0 in | - | 233 W/m² | - |
| 1788150902 | 75° F | 99% | 752.3 mmHg | 0 in | - | 264 W/m² | - |
| 1788150302 | 75° F | 99% | 752.8 mmHg | 0 in | - | 188 W/m² | - |
| 1788149702 | 75° F | 99% | 753.4 mmHg | 0 in | - | 242 W/m² | - |
| 1788149102 | 76° F | 99% | 754 mmHg | 0 in | - | 235 W/m² | - |
| 1788148502 | 76° F | 99% | 754.3 mmHg | 0 in | - | 224 W/m² | - |
| 1788147902 | 75° F | 99% | 754.7 mmHg | 0 in | - | 237 W/m² | - |
| 1788147302 | 77° F | 99% | 755.2 mmHg | 0 in | - | 423 W/m² | - |
| 1788146702 | 76° F | 99% | 755.4 mmHg | 0 in | - | 604 W/m² | - |
| 1788146102 | 75° F | 99% | 755.5 mmHg | 0 in | - | 295 W/m² | - |
| 1788145502 | 75° F | 99% | 755.5 mmHg | 0 in | - | 251 W/m² | - |
| 1788144902 | 74° F | 99% | 755.7 mmHg | 0 in | - | 201 W/m² | - |
| 1788144302 | 74° F | 99% | 755.7 mmHg | 0 in | - | 178 W/m² | - |
| 1788143702 | 74° F | 99% | 755.7 mmHg | 0 in | - | 238 W/m² | - |
* Rain latest hour (hover to see other rain measurements)
** Current wind speed in m/s (hover to see current wind gust speed)